Weather History for Goldsboro, NC

Change the Weather History Date:

Saturday, May 18, 2013

  Actual Average (KGSB) Record (KGSB)
Temperature  
Mean Temperature 74 °F -  
Max Temperature 85 °F 80 °F 93 °F (1997)
Min Temperature 64 °F 59 °F 52 °F (2007)
Cooling Degree Days 10    
Growing Degree Days 24 (Base 50)    
Moisture  
Dew Point 63 °F    
Average Humidity 75    
Maximum Humidity 100    
Minimum Humidity 41    
Precipitation  
Precipitation 0.65 in - - ()
Sea Level Pressure  
Sea Level Pressure 30.13 in    
Wind  
Wind Speed 4 mph (SSE)    
Max Wind Speed 13 mph    
Max Gust Speed 23 mph    
Visibility 9 miles    
Events Rain    
Averages and records for this station are not official NWS values.
T = Trace of Precipitation, MM = Missing Value Source: NWS Daily Summary

Daily Weather History Graph

Daily Weather History Graph

Search for Another Location

Airport:

Trip Planner

Search our weather history database for the weather conditions in past years. The results will help you decide how hot, cold, wet, or windy it might be!

Date:

Astronomy

May. 18, 2013 Rise Set
Actual Time 6:04 AM EDT 8:12 PM EDT
Civil Twilight 5:36 AM EDT 8:40 PM EDT
Nautical Twilight 5:01 AM EDT 9:15 PM EDT
Astronomical Twilight 4:24 AM EDT 9:53 PM EDT
Moon 1:27 PM EDT (5/18) 1:41 AM EDT (5/18)
Length of Visible Light 15h 04m
Length of Day
14h 07m
First Quarter, 55% of the Moon is Illuminated
May 18
First Quarter
May 25
Full
May 31
Last Quarter
Jun 8
New
Jun 16
First Quarter

Hourly Weather History & Observations

Time (EDT) Temp. Heat Index Dew Point Humidity Pressure Visibility Wind Dir Wind Speed Gust Speed Precip Events Conditions
12:15 AM 71.2 °F - 64.4 °F 79% 30.11 in 10.0 mi ESE 6.9 mph - N/A   Scattered Clouds
12:35 AM 70.2 °F - 64.9 °F 83% 30.11 in 10.0 mi ESE 5.8 mph - N/A   Scattered Clouds
12:55 AM 69.8 °F - 65.3 °F 86% 30.11 in 10.0 mi SE 4.6 mph - N/A   Scattered Clouds
1:15 AM 69.4 °F - 65.3 °F 87% 30.11 in 10.0 mi SE 4.6 mph - N/A   Scattered Clouds
1:35 AM 69.3 °F - 65.3 °F 87% 30.11 in 10.0 mi SSE 4.6 mph - N/A   Clear
1:55 AM 68.5 °F - 64.9 °F 88% 30.10 in 10.0 mi Calm Calm - N/A   Scattered Clouds
2:15 AM 68.2 °F - 64.8 °F 89% 30.10 in 10.0 mi SE 3.5 mph - N/A   Mostly Cloudy
2:35 AM 68.4 °F - 64.6 °F 88% 30.10 in 10.0 mi SSE 3.5 mph - N/A   Overcast
2:55 AM 68.4 °F - 64.0 °F 86% 30.09 in 10.0 mi SSE 3.5 mph - N/A   Mostly Cloudy
3:15 AM 68.5 °F - 63.5 °F 84% 30.09 in 10.0 mi South 4.6 mph - N/A   Scattered Clouds
3:35 AM 68.4 °F - 63.0 °F 83% 30.09 in 10.0 mi Calm Calm - N/A   Scattered Clouds
3:55 AM 68.2 °F - 62.8 °F 83% 30.10 in 10.0 mi Calm Calm - N/A   Mostly Cloudy
4:15 AM 67.5 °F - 62.6 °F 84% 30.10 in 10.0 mi Calm Calm - N/A   Scattered Clouds
4:35 AM 66.2 °F - 62.6 °F 88% 30.10 in 10.0 mi Calm Calm - N/A   Clear
4:55 AM 65.3 °F - 62.6 °F 91% 30.10 in 10.0 mi Calm Calm - N/A   Clear
5:15 AM 64.9 °F - 62.8 °F 93% 30.11 in 10.0 mi Calm Calm - N/A   Clear
5:35 AM 64.4 °F - 62.6 °F 94% 30.11 in 10.0 mi Calm Calm - N/A   Scattered Clouds
5:55 AM 64.2 °F - 63.0 °F 96% 30.11 in 10.0 mi Calm Calm - N/A   Scattered Clouds
6:15 AM 64.4 °F - 63.0 °F 95% 30.12 in 10.0 mi Calm Calm - N/A   Clear
6:35 AM 64.4 °F - 63.0 °F 95% 30.13 in 7.0 mi Calm Calm - N/A   Clear
6:55 AM 64.6 °F - 63.1 °F 95% 30.13 in 7.0 mi Calm Calm - N/A   Clear
7:15 AM 65.5 °F - 63.5 °F 93% 30.14 in 7.0 mi SE 3.5 mph - N/A   Scattered Clouds
7:35 AM 66.2 °F - 63.1 °F 90% 30.14 in 10.0 mi SE 3.5 mph - N/A   Scattered Clouds
7:55 AM 67.1 °F - 62.6 °F 85% 30.15 in 10.0 mi SSE 3.5 mph - N/A   Scattered Clouds
8:15 AM 68.5 °F - 62.4 °F 81% 30.15 in 10.0 mi SSE 5.8 mph - N/A   Clear
8:35 AM 69.6 °F - 62.2 °F 77% 30.15 in 10.0 mi SSE 4.6 mph - N/A   Clear
8:55 AM 70.3 °F - 62.4 °F 76% 30.16 in 10.0 mi South 4.6 mph - N/A   Clear
9:15 AM 71.8 °F - 62.1 °F 71% 30.16 in 10.0 mi SSW 8.1 mph - N/A   Clear
9:35 AM 73.0 °F - 62.1 °F 68% 30.16 in 10.0 mi SSW 4.6 mph - N/A   Clear
9:55 AM 74.5 °F - 62.1 °F 65% 30.17 in 10.0 mi SW 4.6 mph - N/A   Clear
10:15 AM 74.7 °F - 61.7 °F 64% 30.17 in 10.0 mi SSW 4.6 mph - N/A   Clear
10:35 AM 77.5 °F - 62.2 °F 59% 30.16 in 10.0 mi SSW 5.8 mph - N/A   Scattered Clouds
10:55 AM 77.7 °F - 61.5 °F 57% 30.16 in 10.0 mi SW 4.6 mph - N/A   Mostly Cloudy
11:15 AM 77.9 °F - 60.3 °F 54% 30.16 in 10.0 mi Calm Calm - N/A   Scattered Clouds
11:35 AM 79.7 °F - 60.6 °F 52% 30.16 in 10.0 mi South 4.6 mph - N/A   Clear
11:55 AM 80.8 °F 81.1 °F 58.1 °F 46% 30.16 in 10.0 mi SSW 6.9 mph - N/A   Clear
12:15 PM 80.4 °F 80.8 °F 57.7 °F 46% 30.16 in 10.0 mi South 3.5 mph - N/A   Scattered Clouds
12:35 PM 81.7 °F 81.6 °F 58.1 °F 44% 30.16 in 10.0 mi WSW 8.1 mph - N/A   Mostly Cloudy
12:55 PM 81.9 °F 81.8 °F 58.1 °F 44% 30.15 in 10.0 mi WSW 5.8 mph - N/A   Mostly Cloudy
1:15 PM 83.3 °F 83.5 °F 60.3 °F 46% 30.14 in 10.0 mi SSE 5.8 mph - N/A   Scattered Clouds
1:35 PM 83.3 °F 83.5 °F 60.8 °F 46% 30.13 in 10.0 mi SE 6.9 mph - N/A   Scattered Clouds
1:55 PM 82.9 °F 83.5 °F 61.2 °F 48% 30.13 in 10.0 mi SW 6.9 mph - N/A   Mostly Cloudy
2:15 PM 82.6 °F 83.2 °F 61.9 °F 49% 30.13 in 10.0 mi SW 6.9 mph - N/A   Scattered Clouds
2:35 PM 83.8 °F 83.8 °F 59.7 °F 44% 30.12 in 10.0 mi SSW 9.2 mph - N/A   Scattered Clouds
2:55 PM 85.6 °F 85.2 °F 59.4 °F 41% 30.11 in 10.0 mi SSW 3.5 mph - N/A   Clear
3:15 PM 84.4 °F 84.6 °F 61.2 °F 45% 30.10 in 10.0 mi South 5.8 mph - N/A   Mostly Cloudy
3:35 PM 83.3 °F 83.9 °F 61.7 °F 48% 30.10 in 10.0 mi SSE 3.5 mph - N/A   Overcast
3:55 PM 82.9 °F 84.2 °F 63.7 °F 52% 30.10 in 10.0 mi SE 5.8 mph - N/A   Overcast
4:15 PM 85.3 °F 85.7 °F 61.7 °F 45% 30.10 in 10.0 mi South 5.8 mph - N/A   Overcast
4:35 PM 85.8 °F 85.9 °F 60.6 °F 43% 30.09 in 10.0 mi SSW 9.2 mph - N/A   Mostly Cloudy
4:55 PM 85.5 °F 85.9 °F 61.7 °F 45% 30.09 in 10.0 mi SW 9.2 mph - N/A   Scattered Clouds
5:15 PM 84.7 °F 85.2 °F 61.7 °F 46% 30.08 in 10.0 mi SW 3.5 mph - N/A   Clear
5:35 PM 84.6 °F 85.0 °F 61.5 °F 46% 30.08 in 10.0 mi WSW 6.9 mph - N/A   Scattered Clouds
5:55 PM 82.9 °F 84.6 °F 64.9 °F 54% 30.09 in 10.0 mi NNE 12.7 mph 21.9 mph N/A   Scattered Clouds
6:15 PM 75.4 °F - 66.9 °F 75% 30.11 in 10.0 mi ENE 12.7 mph 23.0 mph N/A   Mostly Cloudy
6:35 PM 72.7 °F - 64.9 °F 77% 30.11 in 10.0 mi East 6.9 mph - N/A   Overcast
6:55 PM 70.5 °F - 65.7 °F 85% 30.12 in 10.0 mi ENE 11.5 mph 16.1 mph N/A Rain Light Rain
7:15 PM 69.4 °F - 65.3 °F 87% 30.14 in 3.0 mi East 9.2 mph 16.1 mph 0.17 in Rain Heavy Rain
7:35 PM 67.1 °F - 66.0 °F 96% 30.14 in 7.0 mi East 8.1 mph - 0.34 in Rain Light Rain
7:55 PM 66.7 °F - 66.2 °F 98% 30.14 in 4.0 mi East 6.9 mph 17.3 mph 0.51 in Rain Rain
8:15 PM 67.1 °F - 66.7 °F 99% 30.14 in 7.0 mi ESE 9.2 mph - N/A   Drizzle
8:35 PM 67.3 °F - 66.9 °F 99% 30.14 in 3.0 mi East 5.8 mph 16.1 mph 0.13 in Rain Rain
8:55 PM 67.6 °F - 67.1 °F 98% 30.14 in 10.0 mi Calm Calm - 0.14 in Rain Light Rain
9:15 PM 68.0 °F - 67.1 °F 97% 30.14 in 10.0 mi Calm Calm - N/A   Overcast
9:35 PM 68.0 °F - 67.3 °F 98% 30.14 in 10.0 mi Calm Calm - N/A   Mostly Cloudy
9:55 PM 67.6 °F - 67.3 °F 99% 30.14 in 7.0 mi Calm Calm - N/A Rain Light Rain
10:15 PM 67.8 °F - 67.6 °F 99% 30.15 in 7.0 mi SSW 3.5 mph - N/A Rain Light Rain
10:35 PM 67.5 °F - 67.5 °F 100% 30.15 in 7.0 mi Calm Calm - N/A   Clear
10:55 PM 67.6 °F - 67.5 °F 99% 30.15 in 10.0 mi Calm Calm - N/A   Clear
11:15 PM 67.6 °F - 67.5 °F 99% 30.15 in 10.0 mi SSE 3.5 mph - N/A   Mostly Cloudy
11:55 PM 67.3 °F - 67.1 °F 99% 30.15 in 7.0 mi SE 3.5 mph - N/A   Clear